Theta_e
363 361 360 360 360 359 357 356 356 356 354 354 353 353 352 349 348 347 345 344 344 343 343 342 343 343 342 342 342 341 341 340 339 338 338 339 338 337 337 337 336 336
364 363 361 360 360 360 359 357 356 356 356 355 353 352 352 350 348 347 345 345 344 343 344 343 342 343 342 342 342 341 341 340 339 338 338 338 338 337 337 337 336 337
365 364 362 361 360 360 360 358 357 357 357 356 354 353 352 351 350 348 346 345 345 343 343 343 343 344 343 341 341 341 341 340 339 338 338 338 339 339 338 338 337 336
366 365 363 362 361 360 360 359 358 359 357 355 355 354 352 352 350 348 347 346 345 343 343 343 343 344 343 341 341 341 340 340 339 338 338 339 339 340 339 338 337 337
367 366 365 363 362 361 361 361 360 359 357 355 355 354 352 352 350 348 347 346 344 343 342 342 343 344 343 342 342 342 341 340 340 339 339 340 340 340 339 338 338 338
369 368 366 364 364 362 362 363 361 361 359 355 355 355 353 351 349 347 347 345 343 343 343 343 343 343 343 343 343 343 342 341 341 339 339 340 340 339 338 338 338 338
369 369 368 366 365 364 364 365 363 362 359 357 357 356 354 351 349 347 346 345 343 342 343 343 342 342 343 344 343 343 343 341 340 339 338 339 339 338 338 338 337 337
369 369 368 367 366 365 365 365 364 363 361 358 358 356 353 351 349 347 346 345 343 342 343 344 343 342 343 344 343 343 343 341 339 339 339 339 339 339 338 338 338 338
368 369 369 367 367 366 366 365 364 363 361 359 358 356 353 352 350 347 346 345 343 343 344 343 343 343 343 343 343 343 342 341 339 339 339 339 339 339 339 338 338 338
369 369 369 368 366 366 366 364 363 363 362 359 358 356 354 352 350 347 346 344 342 343 345 342 341 342 343 343 343 342 341 340 340 339 338 339 339 339 339 338 338 338
369 369 370 368 367 365 365 363 362 362 361 359 358 357 355 353 350 347 347 344 342 345 346 342 340 343 343 342 341 340 338 338 339 338 338 339 339 339 339 338 338 338
370 369 369 368 367 366 364 363 361 360 361 360 358 357 355 352 350 348 347 343 343 346 345 341 342 344 344 342 340 338 338 337 337 338 338 339 338 339 339 338 338 338
371 370 369 368 368 366 364 363 360 357 359 360 358 356 355 353 350 349 347 345 345 345 343 343 345 345 344 342 340 339 339 336 336 338 339 338 338 338 338 337 337 337
372 371 370 368 368 367 365 364 360 358 359 360 358 356 355 353 351 349 347 346 346 344 342 345 346 344 343 342 339 339 339 337 336 338 339 338 338 337 337 336 336 336
372 371 369 368 367 366 365 364 361 359 359 360 358 356 354 353 350 348 347 346 345 343 342 344 345 342 341 340 338 339 340 339 338 338 338 338 338 338 336 336 336 336
372 369 368 367 365 364 364 362 361 359 359 359 358 356 355 353 350 348 348 346 345 344 344 344 342 340 338 337 338 340 341 339 339 338 338 338 339 338 337 336 337 337
371 368 367 366 364 363 363 361 360 359 359 358 357 356 355 353 351 349 346 344 345 345 344 342 340 339 338 336 336 336 337 338 339 338 338 338 338 339 338 337 336 336
371 367 367 366 365 363 363 362 360 359 359 359 357 356 355 353 349 347 346 345 345 343 341 339 339 339 338 336 333 330 330 336 339 338 338 337 337 338 338 337 336 337
369 366 366 366 365 364 363 361 360 360 360 358 357 356 355 352 349 348 347 345 343 341 338 336 337 338 337 336 332 326 324 329 333 335 335 335 336 337 338 338 338 337
367 365 365 365 364 363 363 361 359 359 358 355 355 356 355 353 351 349 346 343 341 339 336 335 337 338 337 335 331 325 323 325 327 331 335 335 335 337 338 339 339 339
366 364 364 364 363 362 362 360 359 359 357 354 354 355 354 353 350 347 344 342 340 337 334 335 338 338 336 333 329 325 325 325 325 330 335 336 335 337 338 339 339 340
365 362 362 362 362 361 360 359 358 358 356 355 354 353 353 350 346 343 341 339 338 336 334 336 338 337 335 333 329 327 326 326 327 333 337 336 336 337 337 338 340 342
366 363 361 360 360 360 358 357 356 355 355 355 353 351 351 347 343 339 337 336 336 334 334 334 335 335 335 333 330 327 327 328 332 336 337 336 336 337 337 338 340 342
366 364 361 359 360 359 357 355 354 354 353 352 350 349 348 346 342 339 336 335 333 332 332 333 332 333 333 332 331 329 329 331 335 338 337 336 336 338 339 339 339 340
365 363 360 359 358 357 355 354 353 352 350 349 348 347 346 344 342 340 337 335 334 333 333 332 331 332 333 333 333 333 333 334 336 338 336 336 337 338 338 339 339 338
362 360 359 357 357 356 354 353 352 350 348 346 345 345 344 343 341 338 337 335 335 335 335 334 333 333 333 333 334 335 335 334 336 338 336 336 340 340 339 340 339 337
Wind_Speed
23 22 21 20 20 19 18 17 16 16 15 14 13 12 13 13 12 12 13 12 11 10 10 10 10 10 10 8 7 6 5 5 5 5 5 5 5 5 5 5 5 5
24 23 22 21 20 20 19 18 17 16 15 15 15 14 14 14 14 14 14 14 13 12 12 13 13 13 13 12 10 9 8 7 7 7 7 7 7 6 6 6 6 6
25 24 23 22 21 21 20 19 18 17 16 16 16 15 15 15 16 16 16 15 14 14 14 15 15 16 16 15 14 12 11 9 9 8 8 9 8 7 7 6 7 7
25 24 24 23 22 21 21 20 19 18 18 17 17 16 16 16 17 17 17 17 16 15 16 16 16 16 17 16 15 15 13 12 10 9 9 9 9 8 8 7 7 7
26 25 24 23 22 22 22 21 21 20 20 19 18 18 17 18 18 18 18 18 18 17 18 19 18 17 17 17 15 15 15 13 13 12 10 10 10 10 9 8 7 7
25 25 25 24 23 23 23 23 23 22 21 20 20 19 20 20 20 19 19 19 19 19 19 20 20 19 18 18 16 15 15 15 15 14 13 12 12 11 9 8 7 7
25 25 25 25 24 24 24 23 23 23 22 21 21 22 22 23 23 22 22 22 21 20 20 20 20 20 19 19 18 17 17 17 16 15 15 14 13 11 10 8 8 9
26 26 26 26 25 25 25 24 23 23 23 23 24 25 25 26 26 25 25 25 23 22 22 21 20 21 20 19 19 19 18 18 18 17 15 15 13 12 11 10 10 10
26 26 26 27 27 26 26 25 24 25 26 26 26 26 26 27 27 27 27 27 25 24 24 22 21 21 21 20 20 21 19 18 17 17 15 14 13 12 12 11 12 12
27 27 27 27 27 26 26 26 25 26 27 28 26 26 27 27 27 28 29 29 27 25 25 24 23 23 22 21 21 21 21 19 17 16 15 13 12 12 12 12 12 13
28 28 27 28 28 27 26 27 27 27 27 27 27 27 27 28 28 29 30 30 28 26 26 26 25 25 24 23 21 21 21 20 18 17 15 14 13 13 13 13 14 14
28 28 28 28 28 27 26 27 28 27 26 27 28 28 28 28 30 31 31 31 29 27 26 26 25 25 24 23 21 21 21 21 20 19 17 15 14 15 15 15 15 15
28 28 28 28 27 26 25 27 29 28 27 27 28 29 29 30 31 31 31 31 31 29 27 26 25 24 23 22 22 22 21 22 22 20 18 16 16 16 16 16 16 16
27 26 25 24 25 25 25 26 28 28 27 27 28 30 31 31 31 32 31 31 31 30 28 25 25 24 23 23 23 22 21 22 23 21 18 16 16 17 17 17 17 16
25 24 23 23 24 24 25 25 26 26 26 27 29 30 31 31 31 31 31 30 28 28 26 24 24 24 24 26 25 23 22 21 21 20 18 17 16 17 17 17 17 17
23 23 23 24 24 25 26 26 25 24 25 27 28 28 28 28 28 28 27 27 26 26 25 24 23 24 26 29 28 25 22 20 19 19 18 16 16 16 16 17 17 18
23 23 23 23 24 24 25 25 26 25 25 27 27 26 24 23 23 23 23 23 24 25 25 24 23 24 28 32 31 27 23 18 17 18 17 15 16 16 16 17 17 17
22 21 22 21 22 23 21 22 25 24 22 22 23 22 21 20 20 21 21 21 22 24 24 23 22 24 28 31 31 30 25 20 16 14 14 15 16 16 17 18 17 16
21 20 21 20 20 20 20 21 23 21 19 19 20 20 20 19 18 20 20 20 21 23 24 23 22 23 25 27 30 30 27 24 20 15 15 17 18 17 17 17 16 16
20 20 20 20 20 19 19 21 22 20 20 22 23 22 20 19 19 19 20 21 22 23 23 21 20 22 24 26 29 29 26 25 23 19 18 19 19 18 16 16 16 16
21 21 20 20 20 19 18 20 22 21 21 23 24 20 18 19 19 19 20 21 22 23 22 20 18 21 24 27 29 28 24 22 22 22 20 19 19 19 17 17 16 14
21 21 20 20 20 19 18 19 20 19 19 20 20 17 16 17 15 16 20 21 21 21 20 18 17 19 22 25 27 27 24 21 22 23 20 18 19 19 19 18 17 15
20 20 19 19 19 19 19 18 18 18 17 16 18 17 16 16 13 15 20 22 23 23 21 19 20 21 22 23 25 25 23 22 22 21 19 19 20 20 19 17 15 16
20 19 18 19 19 19 18 17 17 17 15 15 17 18 17 17 14 13 17 21 24 24 23 22 22 22 22 22 22 21 21 22 22 20 19 20 20 18 16 13 12 13
19 19 18 19 19 18 18 17 16 15 14 15 17 17 16 16 15 13 15 18 20 21 23 23 22 21 21 21 20 19 21 23 21 18 19 19 18 16 15 13 11 12
17 18 17 17 18 17 17 17 15 14 15 16 15 15 14 14 15 15 16 17 17 18 20 21 22 22 23 23 23 22 23 24 21 18 19 17 15 15 15 14 12 13
Wind_Direction
204 206 208 210 213 216 216 213 210 210 208 206 203 199 199 199 197 196 192 193 199 195 191 191 189 189 187 185 187 189 192 199 204 205 203 208 217 229 241 249 253 260
204 205 206 207 211 213 214 213 211 209 206 204 202 201 199 196 194 193 192 192 194 192 191 190 191 191 190 188 187 189 192 198 208 212 210 208 210 218 231 241 246 248
203 204 204 206 209 210 210 211 210 207 205 202 201 201 199 195 191 190 192 192 190 191 192 193 196 195 193 190 186 186 191 196 206 216 220 217 213 215 223 235 244 243
201 202 203 205 208 208 207 207 206 203 203 201 199 200 199 194 189 188 191 191 190 192 192 195 200 199 197 195 190 187 189 194 203 214 226 229 224 222 224 231 241 247
199 200 202 204 206 206 205 204 203 200 200 201 200 199 195 189 188 189 189 190 192 195 194 195 198 199 200 200 195 190 189 191 198 204 216 229 232 228 224 226 234 243
196 198 199 201 203 204 204 203 202 199 199 201 200 197 191 187 189 190 189 191 195 197 197 197 196 196 198 200 198 195 193 193 194 197 208 221 230 233 227 224 228 237
194 196 197 199 200 201 203 202 201 201 200 199 197 193 189 187 189 190 190 193 197 198 199 200 198 195 196 197 198 197 196 196 193 193 204 215 224 232 233 230 231 237
193 194 195 198 199 200 201 200 200 200 197 194 193 192 189 188 189 189 190 192 196 198 198 199 198 196 196 197 198 199 199 200 194 191 201 211 217 228 234 236 238 242
194 195 196 198 198 199 200 200 200 198 194 193 194 191 190 190 190 190 191 191 195 198 198 197 197 197 198 199 199 199 201 202 197 193 201 210 216 225 231 236 241 245
194 195 197 198 200 201 200 201 202 199 196 195 194 192 191 192 192 191 191 192 195 198 197 195 196 198 200 200 200 201 201 201 197 195 202 212 219 227 233 238 244 247
193 195 197 199 201 202 201 202 202 201 199 196 193 194 194 193 192 192 192 193 194 196 196 195 197 197 199 200 200 202 203 202 198 197 203 213 223 231 237 241 244 246
193 195 198 200 201 202 202 202 204 205 203 196 194 198 197 194 193 193 193 194 195 196 196 197 198 196 197 200 199 200 203 203 201 203 206 212 223 234 239 243 246 247
194 195 199 200 201 202 202 203 207 211 207 198 197 201 199 197 196 194 193 193 194 195 195 195 196 194 195 199 198 198 201 203 205 208 209 212 222 233 239 242 246 247
194 195 197 199 200 201 202 204 209 212 208 200 200 203 201 201 200 195 193 192 193 193 192 191 192 192 193 197 198 198 200 204 208 211 212 215 222 232 239 245 249 247
192 195 198 200 202 202 204 207 209 211 210 205 204 205 205 204 203 198 193 191 192 191 188 188 189 190 194 198 199 199 199 203 210 215 217 220 225 233 240 246 248 246
189 196 199 202 204 204 206 212 213 211 211 213 211 208 207 207 205 201 195 190 188 186 183 184 187 191 198 200 198 197 198 203 212 219 222 224 228 235 243 246 245 242
186 195 198 198 203 206 208 212 217 218 217 218 217 211 208 209 208 203 199 193 187 181 180 182 186 194 202 203 201 200 201 204 214 223 226 231 234 237 242 245 243 241
185 195 199 197 202 208 206 207 215 221 219 213 210 210 210 211 208 203 200 194 185 180 181 183 187 198 205 206 205 206 205 206 213 223 231 239 244 242 241 242 242 241
188 196 199 198 201 202 198 203 213 218 212 206 210 217 216 209 203 197 191 187 181 180 183 185 190 201 208 209 210 211 213 214 218 228 238 242 246 245 241 239 237 237
188 194 194 194 197 194 191 202 212 210 209 216 226 229 222 213 205 192 182 178 177 178 181 184 191 201 208 212 212 212 216 219 222 233 241 240 244 245 242 238 234 232
187 191 188 187 193 193 193 203 210 207 208 220 228 227 218 214 207 189 179 179 179 181 183 185 193 203 211 215 213 212 218 220 220 231 239 238 241 243 242 241 237 230
184 186 186 186 189 191 194 202 208 210 211 216 223 221 212 207 197 182 182 184 179 182 186 188 195 205 211 212 210 211 219 223 224 232 236 234 237 240 241 243 239 229
178 180 183 186 186 186 192 199 205 211 212 211 217 220 212 203 189 181 189 191 186 187 192 195 202 210 211 210 210 215 223 227 228 231 231 232 236 237 238 240 233 223
172 174 178 181 182 184 192 199 202 204 205 206 213 218 216 210 199 188 193 197 196 197 200 202 206 212 214 215 217 225 230 227 224 227 231 232 234 235 235 232 223 218
166 171 175 178 182 186 191 195 194 195 201 206 211 216 217 213 207 201 199 195 192 197 203 207 211 214 215 217 221 223 224 223 223 229 232 230 229 234 232 221 217 227
163 169 172 176 181 183 186 189 186 186 195 201 205 210 212 207 204 204 203 197 195 203 208 212 217 221 222 224 225 221 219 221 224 229 232 228 223 222 219 212 216 230